Location: Steinbach
(49.5170°N, 96.6830°W)
Time: 02:39:48
(UTC-05:00)

Daily predictions for brighter satellites

Satellite Brightness Start Highest point End
(mag) Time Altitude Azimuth Time Altitude Azimuth Time Altitude Azimuth
Cosmos 2369 Rocket 4.4 00:03:00 10° WNW 00:06:08 15° W 00:09:14 10° SW
Terra 3.1 00:06:00 17° SSW 00:09:04 32° W 00:13:22 10° NNW
Lacrosse 5 3.0 00:09:30 10° NW 00:14:22 44° NNE 00:19:14 10° E
Cosmos 1932 4.4 00:08:54 10° SW 00:15:06 87° NW 00:21:25 10° NE
Cosmos 2369 4.3 00:10:32 10° NNW 00:16:02 50° NE 00:19:53 19° ESE
Cosmos 2026 Rocket 4.2 00:13:24 27° SSE 00:16:36 54° E 00:22:30 10° NNE
Cosmos 1607 3.9 00:13:26 19° SSW 00:18:00 65° ESE 00:24:09 10° NE
Cosmos 2228 Rocket 4.2 00:14:42 10° N 00:18:43 33° ENE 00:20:39 23° ESE
CZ-4B R/B 2.6 00:17:49 28° ESE 00:19:06 38° ENE 00:22:34 10° N
Cosmos 1470 2.9 00:15:20 10° NNW 00:19:13 65° W 00:20:36 36° SSW
Okean 3 Rocket 3.5 00:21:12 34° S 00:23:04 82° E 00:27:32 10° NNE
Cosmos 1627 Rocket 4.5 00:20:40 28° S 00:24:03 69° E 00:30:10 10° NNE
USA 238 DEB 3.7 00:17:02 10° SW 00:24:07 83° SE 00:31:13 10° NE
USA 238 3.7 00:17:08 10° SW 00:24:13 82° SE 00:31:19 10° NE
Cosmos 1340 2.6 00:26:13 40° SSW 00:27:30 88° W 00:31:20 10° NNE
CZ-4C R/B 2.8 00:28:18 53° SE 00:28:54 71° ENE 00:32:07 10° N
Meteor 1-16 Rocket 4.2 00:23:19 10° NNW 00:28:56 88° E 00:31:53 30° SSE
Cosmos 1980 Rocket 4.1 00:31:46 10° NNW 00:36:21 24° NE 00:40:54 10° E
Cosmos 405 Rocket 3.6 00:37:20 30° ESE 00:37:59 33° E 00:41:24 10° NNE
Cosmos 2278 3.7 00:32:53 10° NNW 00:38:35 77° ENE 00:41:40 28° SE
Cosmos 1741 Rocket 4.4 00:37:16 18° SW 00:41:09 65° WNW 00:46:28 10° NNE
Lacrosse 5 rocket 3.2 00:40:36 10° NW 00:44:23 33° NNE 00:48:20 10° ENE
COSMOS 2406 3.7 00:39:41 12° SW 00:44:52 61° WNW 00:50:36 10° NNE
ALOS 2 2.5 00:44:29 39° SSE 00:46:06 85° ENE 00:50:31 10° NNW
NOSS 3-3 (A) 4.4 00:39:05 10° NW 00:46:22 72° SW 00:51:08 26° SSE
NOSS 3-3 (C) 4.4 00:39:10 10° NW 00:46:29 73° SW 00:51:16 26° SSE
Cosmos 1689 Rocket 2.2 00:46:18 59° SE 00:46:45 72° ENE 00:49:59 10° N
Cosmos 1408 Rocket 3.6 00:46:38 39° SSE 00:48:11 70° E 00:52:39 10° NNE
H-2A R/B 4.2 00:48:20 10° WSW 00:51:09 15° W 00:53:59 10° NW
Cosmos 841 Rocket 4.0 00:46:22 10° NNW 00:51:33 55° ENE 00:54:33 24° SE
CENTAUR R/B 4.3 00:50:42 13° ESE 00:52:21 14° ESE 00:55:27 10° ENE
Cosmos 1417 Rocket 4.5 00:47:19 10° NNW 00:53:26 74° W 00:56:36 30° S
Helios 1A Rocket 3.6 00:49:38 10° NNE 00:53:30 39° E 00:54:23 35° SE
BREEZE-M DEB (TANK) 2.7 00:56:11 42° E 00:56:11 42° E 00:58:52 10° E
Cosmos 1697 Rocket 3.6 00:51:29 10° NNW 00:56:55 44° NE 01:01:24 15° ESE
NOSS 3-2 (C) 3.7 00:55:29 30° S 00:58:23 54° ESE 01:04:56 10° NE
Cosmos 1553 Rocket 4.0 00:52:14 10° N 00:58:37 87° W 01:01:58 31° S
Cosmos 1707 3.5 00:59:25 30° SW 01:00:57 46° WNW 01:04:46 10° N
Cosmos 2082 Rocket 3.3 01:00:04 24° SE 01:01:49 29° ESE 01:06:38 10° NE
Cosmos 1151 Rocket 4.3 01:00:14 10° N 01:04:07 32° ENE 01:06:00 22° ESE
Cosmos 1943 Rocket 4.4 01:04:33 10° WNW 01:06:32 12° W 01:08:32 10° WSW
SL-23 DEB 3.4 01:04:10 10° WSW 01:08:15 85° NNW 01:11:24 10° ENE
Cosmos 1833 Rocket 4.0 01:07:07 22° SE 01:08:54 26° ESE 01:13:28 10° NE
CZ-2C R/B 4.3 01:05:11 17° SE 01:09:01 39° ENE 01:14:19 10° N
ISS -2.7 01:07:54 10° W 01:11:07 56° N 01:14:21 10° E
Cosmos 468 Rocket 4.4 01:08:24 10° NNW 01:13:29 49° WSW 01:15:24 33° SSW
Cosmos 1743 Rocket 3.7 01:14:25 41° SSE 01:15:48 65° E 01:20:14 10° NNE
Cosmos 2315 Rocket 4.5 01:13:53 10° N 01:20:07 55° ENE 01:23:53 24° SE
Cosmos 1814 Rocket 4.5 01:15:59 10° NNW 01:21:03 48° WSW 01:22:59 33° SSW
H-2A R/B 2.7 01:20:43 10° N 01:24:29 53° WNW 01:25:46 35° SW
Cosmos 1656 3.7 01:18:55 10° NNW 01:24:41 81° ENE 01:27:53 27° SE
Meteor 1-24 Rocket 4.1 01:21:31 27° SSW 01:24:53 64° WNW 01:30:45 10° N
S3M 4.3 01:19:53 10° NNW 01:26:00 56° W 01:29:03 29° SSW
Cosmos 1674 3.9 01:25:43 26° ESE 01:26:32 29° E 01:29:49 10° NNE
Cosmos 1378 3.4 01:26:38 44° SW 01:27:37 61° WNW 01:31:24 10° N
Landsat 5 4.0 01:26:51 36° SW 01:27:44 43° W 01:31:38 10° NNW
Lacrosse 4 Rocket 4.4 01:27:04 10° WNW 01:28:55 13° NNW 01:30:48 10° N
Cosmos 2266 Rocket 4.1 01:26:29 31° S 01:29:46 72° E 01:36:10 10° NNE
Cosmos 1766 Rocket 4.1 01:28:50 31° SW 01:30:39 51° WNW 01:35:04 10° N
Cosmos 836 Rocket 4.5 01:25:44 10° NNW 01:30:59 85° ENE 01:33:30 32° SSE
Cosmos 1500 Rocket 3.6 01:31:47 42° SSE 01:33:05 67° E 01:37:25 10° NNE
Cosmos 2221 4.2 01:30:12 10° NW 01:33:29 22° W 01:34:57 18° WSW
Cosmos 1328 Rocket 3.7 01:30:45 10° NNW 01:35:04 59° W 01:36:24 40° SSW
ATLAS 3B R/B 4.4 01:29:04 10° W 01:35:57 35° NNW 01:42:35 10° NE
Cosmos 1076 Rocket 4.4 01:34:39 27° WSW 01:36:22 40° WNW 01:40:24 10° N
CZ-2C R/B 3.0 01:31:04 10° NNE 01:36:35 58° E 01:39:00 32° SSE
SL-16 R/B 4.1 01:34:43 10° NNW 01:39:35 28° NE 01:44:25 10° ESE
Cosmos 405 4.2 01:37:25 10° N 01:40:49 37° ENE 01:42:06 27° ESE
Cosmos 1486 Rocket 4.0 01:38:41 31° SSW 01:41:11 77° WNW 01:46:26 10° NNE
NOSS 3-2 (A) 3.6 01:37:25 19° SW 01:42:08 79° NW 01:49:03 10° NE
Timation 2 Rocket 4.1 01:39:30 27° SSW 01:43:36 88° ESE 01:50:25 10° NNE
Aureole 1 Rocket 3.5 01:42:32 10° NNW 01:46:55 71° ENE 01:50:19 24° SE
Meteor 2-20 4.4 01:44:29 31° SSW 01:47:39 85° W 01:53:52 10° N
CZ-4C R/B 2.4 01:43:54 21° SW 01:47:41 76° NW 01:53:59 10° NE
Cosmos 1818 4.5 01:43:04 10° NW 01:47:51 31° WSW 01:49:06 28° SW
Cosmos 1515 Rocket 3.9 01:44:15 10° NNW 01:48:37 55° W 01:50:01 38° SSW
Cosmos 2322 Rocket 3.7 01:46:17 10° NNW 01:51:24 34° NE 01:56:28 10° ESE
CZ-4B R/B 3.4 01:51:36 19° WSW 01:52:06 19° W 01:54:50 10° NW
Cosmos 1763 Rocket 4.0 01:47:53 10° NNW 01:52:59 47° WSW 01:54:50 33° SSW
In-Cosmos 22 4.2 01:50:28 32° SSW 01:53:09 79° WNW 01:58:53 10° N
Cosmos 540 Rocket 3.7 01:48:57 10° NNW 01:54:09 70° ENE 01:57:19 24° SE
Cosmos 2228 Rocket 4.3 01:53:04 10° NNW 01:56:51 28° W 01:58:09 24° WSW
Lacrosse 5 1.8 01:52:34 10° WNW 01:57:37 71° SW 02:00:56 21° SE
Genesis I 3.8 01:54:41 10° NW 01:58:25 38° WSW 01:58:34 38° SW
PSLV R/B 3.9 01:59:39 40° S 02:01:07 85° WSW 02:05:19 10° NNW
Meteor 1-21 Rocket 4.3 02:00:44 31° SSW 02:03:37 73° WNW 02:09:17 10° N
Abrixas 4.1 02:09:24 25° ESE 02:09:24 25° ESE 02:11:03 10° E
Cosmos 371 Rocket 4.2 02:04:11 10° NNW 02:08:54 47° ENE 02:13:03 13° SE
Cosmos 1908 3.8 02:13:12 10° NNW 02:16:51 42° W 02:17:41 36° SW
Cosmos 724 4.2 02:16:59 28° SSW 02:20:09 84° SE 02:26:06 10° NE
Cosmos 1437 4.0 02:19:57 29° SE 02:20:49 35° E 02:23:54 10° NNE
Cosmos 1980 Rocket 2.1 02:15:21 10° NNW 02:21:00 79° WSW 02:24:37 23° SSE
Cosmos 2360 Rocket 4.4 02:16:32 10° NNW 02:21:09 25° NE 02:25:46 10° E
BREEZE-M DEB (TANK) 3.0 02:12:18 10° W 02:22:20 90° S 02:25:28 10° E
Cosmos 2344 3.7 02:17:06 22° SW 02:22:37 86° SE 02:31:59 10° NE
ERS-2 4.2 02:21:22 10° NE 02:24:08 20° E 02:25:52 15° SE
Lacrosse 5 rocket 1.5 02:19:51 10° NW 02:24:08 79° NNE 02:28:38 10° ESE
Cosmos 1805 Rocket 3.8 02:22:24 32° SSE 02:24:18 64° E 02:28:44 10° NNE
Cosmos 2242 Rocket 4.1 02:21:10 10° N 02:25:31 54° ENE 02:28:12 22° SSE
COS B Rocket 2.5 02:23:49 10° N 02:25:50 55° NE 02:25:50 55° NE
Cosmos 1867 3.9 02:23:20 21° SW 02:27:00 65° NW 02:32:29 10° NE
Cosmos 1354 Rocket 4.4 02:25:49 25° SW 02:28:47 59° WNW 02:34:03 10° NNE
Cosmos 1300 2.7 02:25:02 10° N 02:28:53 82° ENE 02:30:23 36° SSE
Meteor 1-4 Rocket 4.4 02:27:25 10° N 02:30:43 28° ENE 02:33:52 11° SE
Cosmos 1633 Rocket 3.7 02:29:41 25° SSE 02:31:54 48° E 02:36:10 10° NNE
Cosmos 2058 2.9 02:30:49 35° S 02:32:31 75° E 02:36:42 10° NNE
USA 32 4.1 02:27:30 10° NNW 02:32:43 64° W 02:35:19 29° SSW
Cosmos 1707 Rocket 3.5 02:29:55 10° NNW 02:34:18 78° W 02:36:12 33° S
Cosmos 1503 Rocket 4.5 02:31:34 24° SW 02:34:39 56° WNW 02:39:53 10° NNE
Cosmos 1437 Rocket 3.6 02:31:53 10° NNW 02:35:28 34° W 02:36:21 30° WSW
Cosmos 1441 Rocket 3.9 02:35:31 31° SW 02:36:59 46° WNW 02:40:48 10° N
Cosmos 1697 Rocket 3.4 02:35:39 10° NW 02:40:50 37° WSW 02:43:06 27° SSW
Cosmos 1666 Rocket 3.6 02:39:30 30° S 02:41:31 71° E 02:45:51 10° NNE
CENTAUR R/B 2.7 02:37:52 26° SSW 02:41:31 67° SE 02:48:29 10° NE
Cosmos 1151 Rocket 4.3 02:37:58 10° NNW 02:41:36 27° W 02:42:51 23° WSW
Cosmos 968 Rocket 4.3 02:39:31 22° SSE 02:42:20 41° ESE 02:47:10 10° NE
Cosmos 2151 3.4 02:43:35 30° SW 02:45:22 50° WNW 02:49:32 10° N
Cosmos 2082 Rocket 2.7 02:41:53 21° SW 02:45:37 55° NW 02:51:13 10° NNE
ISS -3.5 02:44:26 10° WNW 02:47:43 81° SSW 02:50:58 10° ESE
CZ-2C R/B 3.9 02:46:15 25° SSW 02:48:51 40° W 02:54:15 10° NNW
NOSS 3-2 (C) 4.5 02:43:21 10° WSW 02:49:29 47° NNW 02:56:14 10° NE
Cosmos 1833 Rocket 3.0 02:48:48 22° SW 02:52:25 61° WNW 02:58:02 10° NNE
Cosmos 1726 2.0 02:49:12 10° NNW 02:52:53 70° W 02:54:21 34° S
ASTEX 1 3.7 02:49:04 10° N 02:53:57 57° WNW 02:56:35 26° SSW
Cosmos 1455 3.3 02:52:23 10° N 02:56:00 40° ENE 02:59:10 13° SE
Cosmos 1933 Rocket 4.5 02:53:52 18° SSE 02:56:44 42° E 03:00:55 10° NNE
Cosmos 332 Rocket 4.1 02:53:41 10° NNW 02:58:17 47° WSW 03:00:35 26° SSW
ATLAS 5 CENTAUR R/B 4.0 02:55:41 10° SSE 02:58:40 16° ESE 03:01:47 10° ENE
Cosmos 1674 4.2 03:00:41 19° WSW 03:02:13 24° WNW 03:05:20 10° NNW
Cosmos 1538 Rocket 4.0 02:58:52 10° NNW 03:04:02 63° WSW 03:07:44 19° S
BREEZE-M DEB (TANK) 4.4 02:50:05 10° WSW 03:05:29 67° S 03:09:54 10° E
Landsat 4 4.1 03:05:19 30° SSW 03:06:42 46° W 03:10:20 10° NNW
Resurs 1-4 Rocket 4.4 03:04:14 10° NE 03:07:38 17° E 03:11:01 10° SE
Cosmos 923 Rocket 4.2 03:02:25 10° NNW 03:07:43 71° ENE 03:12:56 10° SSE
Cosmos 2360 4.5 03:04:05 10° NW 03:09:34 49° WSW 03:13:25 19° S
IRS-P3 4.3 03:05:13 10° NNE 03:10:34 70° ESE 03:14:21 20° S
Sich 1 3.1 03:08:28 26° SSW 03:10:51 68° W 03:15:18 10° N
SL-08 R/B 3.3 03:12:32 16° SSE 03:16:30 85° WSW 03:21:28 10° NNW
CZ-2C R/B 4.2 03:11:55 10° N 03:16:30 27° WNW 03:20:31 12° WSW
Cosmos 1680 Rocket 3.9 03:11:23 10° NNW 03:16:37 66° ENE 03:21:47 10° SSE
USA 161 3.1 03:14:46 12° SE 03:16:37 26° ENE 03:18:42 10° N
Cosmos 1626 3.1 03:15:37 16° SSE 03:18:14 42° E 03:21:49 10° NNE
Cosmos 1745 Rocket 4.1 03:14:08 21° SSW 03:18:34 69° WNW 03:24:55 10° N
Nadezhda 1 Rocket 4.1 03:14:10 10° NNW 03:20:13 58° W 03:24:38 18° SSW
SL-16 R/B 3.6 03:14:37 10° SE 03:20:32 46° ENE 03:26:28 10° N
SL-23 DEB 3.5 03:17:52 10° WNW 03:21:02 71° NNE 03:24:27 10° E
JB-3 4.4 03:17:27 10° N 03:21:29 72° WNW 03:23:45 24° SSW
Cosmos 773 Rocket 3.9 03:16:21 10° NNW 03:21:30 76° WSW 03:26:37 10° SSE
Cosmos 1777 Rocket 4.4 03:18:20 18° S 03:22:08 57° ESE 03:27:20 10° NNE
SL-16 R/B 2.2 03:18:32 10° NNW 03:24:11 67° WSW 03:29:48 10° SSE
CBERS-1 4.2 03:22:25 10° NNE 03:27:33 69° ESE 03:31:38 16° S
Cosmos 1862 Rocket 3.5 03:23:07 10° NNW 03:27:38 79° W 03:31:12 16° S
SL-14 R/B 3.9 03:26:44 23° SW 03:28:43 42° WNW 03:32:26 10° N
Cosmos 1709 Rocket 4.2 03:24:34 14° S 03:30:05 73° E 03:36:19 10° NNE
Cosmos 1869 3.3 03:26:19 10° N 03:30:19 84° E 03:33:46 13° S
SAR-Lupe-3 4.4 03:30:15 16° S 03:32:58 80° WSW 03:36:34 10° NNW
ARIANE 5 R/B 3.8 03:30:31 10° NNE 03:35:13 35° E 03:39:49 10° SSE
Cosmos 2322 Rocket 2.4 03:30:14 10° NW 03:35:41 51° WSW 03:41:06 10° S
CZ-4C R/B 4.1 03:32:10 10° W 03:37:15 29° NNW 03:42:56 10° NE
PSLV R/B 4.4 03:33:39 10° N 03:38:02 43° WNW 03:41:04 18° SW
Lacrosse 5 3.4 03:36:46 10° W 03:39:49 16° WSW 03:40:02 16° SW
Cosmos 1703 3.6 03:38:17 21° SSW 03:40:45 53° WNW 03:44:38 10° N
Cosmos 1271 Rocket 3.1 03:39:22 10° NNW 03:43:01 44° W 03:45:24 19° SSW
Abrixas 2.4 03:41:27 13° W 03:44:05 74° S 03:47:10 10° E
ADEOS 3.7 03:40:44 10° NNE 03:45:59 72° ESE 03:50:46 12° S
H-2A R/B 3.9 03:44:34 15° SSW 03:48:20 24° SSE 04:02:52 10° ESE
Cosmos 371 Rocket 4.4 03:45:06 10° NW 03:49:04 26° W 03:51:40 16° SW
Cosmos 2221 Rocket 3.9 03:45:36 10° N 03:50:08 71° E 03:54:39 10° SSE
USA 215 3.4 03:43:50 10° ENE 03:50:21 64° SE 03:56:02 14° SW
Cosmos 1346 3.8 03:52:44 13° S 03:55:22 51° E 03:58:21 10° NNE
EO 1 Del DPAF 3.4 03:53:06 10° SSE 03:57:00 80° ENE 04:00:57 10° NNW
Cosmos 1869 Rocket 4.4 03:53:27 10° SSE 03:57:40 48° E 04:01:58 10° NNE
ERS-2 3.0 03:54:37 10° N 03:58:06 38° WNW 04:00:44 15° SW
CZ-2D R/B 3.2 03:53:40 10° NNE 03:58:37 41° E 04:03:35 10° SSE
ATLAS CENTAUR R/B 2.1 03:56:07 10° NW 04:00:57 65° NE 04:05:23 10° SE
Cosmos 304 Rocket 3.8 03:56:12 10° NNW 04:00:59 62° WSW 04:05:44 10° S
Lacrosse 5 rocket 2.6 03:59:36 10° WNW 04:03:07 24° SW 04:06:43 10° S
Cosmos 1933 3.3 03:59:14 10° NNW 04:03:18 81° W 04:07:18 10° S
Cosmos 1980 Rocket 4.0 04:01:22 10° WNW 04:04:05 14° W 04:06:20 11° WSW
Cosmos 2360 Rocket 2.1 04:00:08 10° NNW 04:05:47 77° WSW 04:11:24 10° SSE
Meteor 1-4 Rocket 3.9 04:02:43 10° NW 04:05:52 25° W 04:08:13 14° SW
NPP 4.1 04:03:34 10° N 04:08:46 50° WNW 04:13:33 12° SW
Cosmos 2112 Rocket 4.1 04:06:21 10° NNW 04:11:25 54° WSW 04:16:27 10° S
AQUA 4.4 04:11:22 10° N 04:15:55 45° WNW 04:20:13 11° SW
Meteor 1-26 Rocket 4.2 04:15:08 10° NNW 04:20:45 90° ENE 04:26:17 10° S
Cosmos 2181 Rocket 4.4 04:16:34 10° NNW 04:22:20 44° W 04:28:09 10° SSW
Cosmos 1703 Rocket 3.8 04:18:34 10° NNW 04:22:49 53° W 04:27:02 10° S
Cosmos 2322 3.8 04:17:55 10° NW 04:23:34 59° WSW 04:29:10 10° S
ISS -1.9 04:21:22 10° W 04:23:47 19° SW 04:26:13 10° S
CZ-2C R/B 4.4 04:21:39 10° SSE 04:26:05 59° ENE 04:30:36 10° N
Cosmos 2219 4.1 04:21:27 10° S 04:26:54 47° ESE 04:32:23 10° NE
Cosmos 2292 Rocket 3.7 04:25:23 11° SW 04:28:16 40° WNW 04:32:02 10° N
UNK 3.7 04:25:07 10° S 04:29:40 67° WSW 04:34:15 10° NNW
Cosmos 2082 Rocket 4.4 04:27:41 10° WNW 04:31:04 16° NNW 04:34:27 10° N
Cosmos 1455 3.9 04:28:53 10° NW 04:31:27 17° W 04:34:00 10° SW
USA 129 1.2 04:31:27 13° S 04:32:27 36° W 04:33:51 10° NNW
CENTAUR R/B 3.7 04:26:31 10° W 04:32:40 42° NNW 04:39:34 10° NE
Nadezhda 3 Rocket 4.4 04:30:19 10° N 04:36:29 69° ENE 04:42:36 10° SSE
ATLAS 5 CENTAUR R/B 2.0 04:37:32 10° SW 04:42:30 89° SE 04:47:56 10° NE
Cosmos 2333 Rocket 3.4 04:38:51 10° NNW 04:44:24 50° NE 04:49:57 10° SE
Okean 1-7 3.4 04:41:51 10° NNW 04:46:06 48° W 04:50:18 10° SSW
BREEZE-M DEB (TANK) 4.5 04:25:31 10° WSW 04:47:20 68° SSE 04:52:07 10° E
Resurs 1-4 Rocket 2.2 04:42:47 10° NNE 04:48:08 81° WNW 04:53:27 10° SSW
Cosmos 2298 Rocket 4.2 04:45:13 10° SSW 04:50:33 85° ESE 04:55:56 10° NNE
